Zurück zum Katalog

STARLINK-34271

AktivKommunikationVLEO
NORAD 64384·PAYLOAD·🇺🇸 United States

Gestartet Jun 13, 2025 von Cape Canaveral Space Force Station

Loading…

Nächste Überflüge (nächste 24 Stunden)

TLE

AktuellSource: CelesTrak SupGP

Epoche: Sep 15, 2026, 03:35 UTC

1 64384C 25127Q   26258.14979167 -.00007597  00000+0 -27523-3 0  2588
2 64384  42.9994 190.0409 0000892 272.0248 311.6647 15.27576297    11

Verfolge STARLINK-34271 in Echtzeit mit AllMySat

Download on the App Store